Weather Roundup
Issued by NWS

Home | Current Version | Previous Version | Graphics & Text | Print | Product List | Glossary Off
Versions: 1 2 3 4 5 6 7 8 9 10 11 12 13 14 15 16 17 18 19 20 21 22 23 24 25 26 27 28 29 30 31 32 33 34 35 36 37 38 39 40 41 42 43 44 45 46 47 48 49 50

000
NZUS93 KARX 010359
HRRWXR

CURRENT HOURLY OBSERVATIONS ACROSS
MUCH OF THE UPPER MISSISSIPPI VALLEY
NATIONAL WEATHER SERVICE LA CROSSE WI
1100 PM CDT MON AUG 31 2015


...SOUTHEAST MINNESOTA...


CITY           SKY/WX    TMP DP  RH WIND       PRES   REMARKS
ROCHESTER      PTCLDY    73  71  93 S7        29.97S FOG
ROCHESTER/MAYO CLOUDY    75  74  96 SE5       29.96S
WINONA         CLEAR     73  70  88 S3        29.95S
AUSTIN         PTCLDY    73  72  94 S3        29.95F FOG
ALBERT LEA     CLEAR     72  70  94 CALM      29.95F
DODGE CENTER   PTCLDY    72  70  94 S6        29.96S FOG
PRESTON        CLEAR     72  69  92 S5        29.98S FOG
OWATONNA       CLEAR     73  68  83 S6        29.94S
FARIBAULT      CLEAR     73  70  88 S5        29.93F
$$

...ELSEWHERE IN MINNESOTA...


CITY           SKY/WX    TMP DP  RH WIND       PRES   REMARKS
MINNEAPOLIS    MOCLDY    78  70  76 S10       29.90S
INTNL FALLS    CLOUDY    65  63  93 SW5       29.84R
DULUTH         MOCLDY    73  68  84 SW8       29.88F
RED WING       CLEAR     73  70  88 CALM      29.92S
REDWOOD FALLS  CLEAR     72  67  84 S9        29.89S
MANKATO        CLEAR     72  68  88 S6        29.92S
WORTHINGTON    CLEAR     70  64  83 S9        29.94R
FAIRMONT       CLEAR     66  61  82 S7        29.92F
$$

...SOUTHWEST WISCONSIN...


CITY           SKY/WX    TMP DP  RH WIND       PRES   REMARKS
LA CROSSE      PTCLDY    73  70  90 S5        29.96S
PRAIRIE DU CHI CLEAR     74  69  85 CALM      29.98S
BOSCOBEL       CLEAR     72  69  90 CALM      29.99R
LONE ROCK      NOT AVBL
PLATTEVILLE    CLEAR     73  70  91 SE8       30.00F
FORT MC COY    CLEAR     68  65  91 CALM      29.98S
VIROQUA          N/A     72  72 100 SE5       30.01S
WIS DELLS      CLEAR     70  66  86 S7        30.00S
$$

...ELSEWHERE IN WISCONSIN...


CITY           SKY/WX    TMP DP  RH WIND       PRES   REMARKS
MILWAUKEE      PTCLDY    69  65  86 S6        30.03S
MADISON        CLEAR     73  68  84 S5        30.01S
GREEN BAY      CLEAR     69  67  93 S6        30.00S FOG
EAU CLAIRE     CLEAR     74  69  85 S9        29.94S
BLACK RVR FLS  FAIR      65  65 100 CALM      29.97S FOG
MEDFORD        CLEAR     66  65  99 S7        30.00S FOG
WAUSAU         CLEAR     70  67  90 S7        29.99R
WIS RAPIDS     CLEAR     70  66  87 S5        30.01S
MARSHFIELD     CLEAR     68  64  87 S7        30.00S FOG
RICE LAKE      PTCLDY    72  68  89 SE7       29.94F
$$

...NORTHEAST IOWA...


CITY           SKY/WX    TMP DP  RH WIND       PRES   REMARKS
DECORAH        MOCLDY    73  72  94 S6        29.98R
MASON CITY     PTCLDY    69  69 100 S5        29.97S FOG
CHARLES CITY   CLEAR     73  73 100 S6        29.97S
OELWEIN          N/A     73  72  94 SE5       29.98F FOG
$$

...ELSEWHERE IN IOWA...


CITY           SKY/WX    TMP DP  RH WIND       PRES   REMARKS
DES MOINES     PTCLDY    75  70  84 S6        29.95S
IOWA CITY      PTCLDY    74  71  91 SE3       29.98S
FORT DODGE     CLEAR     70  64  83 SE3       29.96S
$$

...NORTHERN ILLINOIS...


CITY           SKY/WX    TMP DP  RH WIND       PRES   REMARKS
CHICAGO-OHARE  CLEAR     72  68  87 CALM      30.03F
CHICAGO-MIDWAY CLEAR     78  68  71 S3        30.04S
MOLINE         PTCLDY    76  71  85 S6        29.99S
ROCKFORD       CLEAR     73  68  84 CALM      30.04S
PEORIA         CLEAR     79  70  74 S7        30.03S
$$

NOTE: "FAIR" INDICATES FEW OR NO CLOUDS BELOW 12,000 FEET WITH NO
SIGNIFICANT WEATHER AND/OR OBSTRUCTIONS TO VISIBILITY. WIND
SPEEDS ARE IN MILES-PER-HOUR.



USA.gov is the U.S. government's official web portal to all federal, state and local government web resources and services.